Auburn-Lewiston, ME

11:16 AM EDT on May 27, 2017 (GMT -0400)
Auburn-Lewiston Municipal

Weather History for KLEW - March, 2014

Change the Weather History Date:

Saturday, March 22, 2014

  Actual Average Record
Temperature  
Mean Temperature 27 °F -  
Max Temperature 37 °F 39 °F 82 °F (2012)
Min Temperature 17 °F 23 °F 12 °F (2002)
Degree Days  
Heating Degree Days 38    
Moisture  
Dew Point 20 °F    
Average Humidity 68    
Maximum Humidity 93    
Minimum Humidity 51    
Precipitation  
Precipitation 0.00 in - - ()
Sea Level Pressure  
Sea Level Pressure 29.84 in    
Wind  
Wind Speed 4 mph (SW)    
Max Wind Speed 16 mph    
Max Gust Speed 22 mph    
Visibility 10 miles    
Events      
Averages and records for this station are not official NWS values.
T = Trace of Precipitation, MM = Missing Value Source: NWS Daily Summary

Daily Weather History Graph

Daily Weather History Graph

Search for Another Location

Airport or City:

Trip Planner

Search our weather history database for the weather conditions in past years. The results will help you decide how hot, cold, wet, or windy it might be!

Date:

Astronomy

Mar. 22, 2014 Rise Set
Actual Time 6:40 AM EDT 6:55 PM EDT
Civil Twilight 6:11 AM EDT 7:24 PM EDT
Nautical Twilight 5:38 AM EDT 7:58 PM EDT
Astronomical Twilight 5:03 AM EDT 8:33 PM EDT
Moon 12:21 AM EDT (3/22) 10:10 AM EDT (3/22)
Length of Visible Light 13h 12m
Length of Day
12h 15m
Waning Gibbous, 65% of the Moon is Illuminated
Mar 22
Waning Gibbous
Mar 23
Last Quarter
Mar 30
New
Apr 7
First Quarter
Apr 15
Full

Hourly Weather History & Observations

Time (EDT) Temp. Windchill Dew Point Humidity Pressure Visibility Wind Dir Wind Speed Gust Speed Precip Events Conditions
12:15 AM 30.2 °F 26.7 °F 14.0 °F 51% 29.94 in 10.0 mi WNW 3.5 mph - N/A   Clear
12:35 AM 28.4 °F - 14.0 °F 55% 29.94 in 10.0 mi Calm Calm - N/A   Clear
12:55 AM 28.4 °F - 14.0 °F 55% 29.95 in 10.0 mi Calm Calm - N/A   Clear
1:15 AM 28.4 °F - 15.8 °F 59% 29.95 in 10.0 mi Calm Calm - N/A   Clear
1:35 AM 28.4 °F - 14.0 °F 55% 29.94 in 10.0 mi Calm Calm - N/A   Clear
1:55 AM 26.6 °F 22.6 °F 12.2 °F 55% 29.95 in 10.0 mi WNW 3.5 mph - N/A   Clear
2:15 AM 30.2 °F 26.7 °F 14.0 °F 51% 29.97 in 10.0 mi NNE 3.5 mph - N/A   Clear
2:35 AM 23.0 °F - 10.4 °F 59% 29.98 in 10.0 mi Calm Calm - N/A   Clear
2:55 AM 26.6 °F 21.2 °F 14.0 °F 59% 29.98 in 10.0 mi NW 4.6 mph - N/A   Clear
3:15 AM 26.6 °F 21.2 °F 14.0 °F 59% 29.98 in 10.0 mi West 4.6 mph - N/A   Clear
3:35 AM 24.8 °F - 12.2 °F 59% 29.98 in 10.0 mi Calm Calm - N/A   Clear
3:55 AM 24.8 °F 20.5 °F 12.2 °F 59% 29.98 in 10.0 mi South 3.5 mph - N/A   Clear
4:15 AM 26.6 °F - 14.0 °F 59% 29.98 in 10.0 mi Calm Calm - N/A   Clear
4:35 AM 28.4 °F 24.6 °F 15.8 °F 59% 29.97 in 10.0 mi NNE 3.5 mph - N/A   Clear
4:55 AM 19.4 °F - 10.4 °F 68% 29.97 in 10.0 mi Calm Calm - N/A   Clear
5:15 AM 21.2 °F - 12.2 °F 68% 29.96 in 10.0 mi Calm Calm - N/A   Clear
5:35 AM 17.6 °F - 10.4 °F 73% 29.95 in 10.0 mi Calm Calm - N/A   Clear
5:55 AM 17.6 °F - 12.2 °F 79% 29.94 in 10.0 mi Calm Calm - N/A   Clear
6:15 AM 19.4 °F - 15.8 °F 86% 29.93 in 10.0 mi Calm Calm - N/A   Clear
6:35 AM 19.4 °F - 14.0 °F 80% 29.94 in 10.0 mi Calm Calm - N/A   Clear
6:55 AM 19.4 °F - 14.0 °F 80% 29.95 in 10.0 mi Calm Calm - N/A   Clear
7:15 AM 19.4 °F - 14.0 °F 80% 29.95 in 10.0 mi Calm Calm - N/A   Clear
7:35 AM 21.2 °F - 14.0 °F 74% 29.95 in 10.0 mi Calm Calm - N/A   Partly Cloudy
7:55 AM 21.2 °F - 15.8 °F 80% 29.95 in 10.0 mi Calm Calm - N/A   Scattered Clouds
8:15 AM 21.2 °F - 15.8 °F 80% 29.94 in 10.0 mi Calm Calm - N/A   Mostly Cloudy
8:35 AM 23.0 °F - 15.8 °F 74% 29.93 in 10.0 mi Calm Calm - N/A   Scattered Clouds
8:55 AM 26.6 °F 22.6 °F 17.6 °F 69% 29.91 in 10.0 mi SSE 3.5 mph - N/A   Mostly Cloudy
9:15 AM 28.4 °F 23.3 °F 15.8 °F 59% 29.91 in 10.0 mi SSE 4.6 mph - N/A   Mostly Cloudy
9:35 AM 28.4 °F 21.2 °F 15.8 °F 59% 29.91 in 10.0 mi SSE 6.9 mph - N/A   Mostly Cloudy
9:55 AM 28.4 °F 21.2 °F 15.8 °F 59% 29.89 in 10.0 mi SE 6.9 mph - N/A   Overcast
10:15 AM 30.2 °F 23.4 °F 15.8 °F 55% 29.87 in 10.0 mi SSE 6.9 mph - N/A   Overcast
10:35 AM 30.2 °F 23.4 °F 15.8 °F 55% 29.85 in 10.0 mi SSE 6.9 mph - N/A   Overcast
10:55 AM 30.2 °F 23.4 °F 17.6 °F 60% 29.84 in 10.0 mi South 6.9 mph - N/A   Overcast
11:15 AM 32.0 °F 25.6 °F 17.6 °F 55% 29.82 in 10.0 mi South 6.9 mph - N/A   Overcast
11:35 AM 33.8 °F 27.0 °F 21.2 °F 60% 29.80 in 10.0 mi South 8.1 mph - N/A   Overcast
11:55 AM 33.8 °F 25.8 °F 21.2 °F 60% 29.79 in 10.0 mi SSE 10.4 mph - N/A   Overcast
12:15 PM 35.6 °F 26.2 °F 21.2 °F 56% 29.78 in 10.0 mi South 15.0 mph 21.9 mph N/A   Overcast
12:35 PM 35.6 °F 27.5 °F 21.2 °F 56% 29.76 in 10.0 mi South 11.5 mph 21.9 mph N/A   Overcast
12:55 PM 35.6 °F 25.9 °F 23.0 °F 60% 29.74 in 10.0 mi South 16.1 mph 20.7 mph N/A   Overcast
1:15 PM 35.6 °F 27.1 °F 24.8 °F 65% 29.73 in 10.0 mi South 12.7 mph 19.6 mph N/A   Overcast
1:35 PM 35.6 °F 28.0 °F 24.8 °F 65% 29.72 in 9.0 mi South 10.4 mph 18.4 mph N/A   Overcast
1:55 PM 33.8 °F 25.8 °F 26.6 °F 75% 29.71 in 1.0 mi South 10.4 mph - N/A   Overcast
2:15 PM 32.0 °F 26.4 °F 28.4 °F 87% 29.70 in 0.8 mi South 5.8 mph - N/A   Overcast
2:35 PM 32.0 °F 27.5 °F 30.2 °F 93% 29.68 in 1.0 mi South 4.6 mph - N/A   Overcast
2:55 PM 33.8 °F 29.6 °F 30.2 °F 87% 29.66 in 10.0 mi SSE 4.6 mph - N/A   Overcast
3:15 PM 33.8 °F 29.6 °F 30.2 °F 87% 29.65 in 10.0 mi South 4.6 mph - N/A   Overcast
3:35 PM 33.8 °F 30.8 °F 30.2 °F 87% 29.64 in 10.0 mi South 3.5 mph - N/A   Overcast
3:55 PM 33.8 °F 28.6 °F 30.2 °F 87% 29.63 in 10.0 mi SSW 5.8 mph - N/A   Overcast
4:15 PM 33.8 °F 26.4 °F 30.2 °F 87% 29.62 in 10.0 mi SSW 9.2 mph - N/A   Overcast
4:35 PM 33.8 °F 28.6 °F 30.2 °F 87% 29.63 in 10.0 mi SSW 5.8 mph - N/A   Overcast
4:55 PM 35.6 °F 29.2 °F 30.2 °F 81% 29.63 in 10.0 mi SW 8.1 mph - N/A   Overcast
5:15 PM 35.6 °F 28.0 °F 30.2 °F 81% 29.65 in 10.0 mi WSW 10.4 mph - N/A   Mostly Cloudy
5:35 PM 35.6 °F 28.6 °F 30.2 °F 81% 29.65 in 10.0 mi WSW 9.2 mph - N/A   Overcast
5:55 PM 37.4 °F 30.8 °F 30.2 °F 75% 29.66 in 10.0 mi West 9.2 mph - N/A   Partly Cloudy
6:15 PM 37.4 °F 29.8 °F 30.2 °F 75% 29.66 in 10.0 mi WSW 11.5 mph 16.1 mph N/A   Clear
6:35 PM 37.4 °F 30.8 °F 28.4 °F 70% 29.68 in 10.0 mi West 9.2 mph - N/A   Clear
6:55 PM 35.6 °F 29.2 °F 28.4 °F 75% 29.71 in 10.0 mi WNW 8.1 mph - N/A   Clear
7:15 PM 35.6 °F 27.1 °F 28.4 °F 75% 29.74 in 10.0 mi NW 12.7 mph 17.3 mph N/A   Clear
7:35 PM 35.6 °F 28.0 °F 24.8 °F 65% 29.77 in 10.0 mi NW 10.4 mph 20.7 mph N/A   Clear
7:55 PM 33.8 °F 26.4 °F 21.2 °F 60% 29.78 in 10.0 mi WNW 9.2 mph - N/A   Clear
8:15 PM 33.8 °F 26.4 °F 21.2 °F 60% 29.80 in 10.0 mi WNW 9.2 mph 16.1 mph N/A   Clear
8:35 PM 33.8 °F 26.4 °F 21.2 °F 60% 29.81 in 10.0 mi NW 9.2 mph - N/A   Clear
8:55 PM 32.0 °F - 19.4 °F 60% 29.82 in 10.0 mi Calm Calm - N/A   Clear
9:15 PM 32.0 °F 26.4 °F 21.2 °F 64% 29.84 in 10.0 mi NW 5.8 mph - N/A   Clear
9:35 PM 30.2 °F 24.3 °F 19.4 °F 64% 29.85 in 10.0 mi WNW 5.8 mph - N/A   Clear
9:55 PM 30.2 °F 23.4 °F 19.4 °F 64% 29.85 in 10.0 mi WNW 6.9 mph - N/A   Clear
10:15 PM 30.2 °F 26.7 °F 19.4 °F 64% 29.85 in 10.0 mi WNW 3.5 mph - N/A   Clear
10:35 PM 30.2 °F 23.4 °F 19.4 °F 64% 29.85 in 10.0 mi NW 6.9 mph - N/A   Clear
10:55 PM 30.2 °F - 19.4 °F 64% 29.86 in 10.0 mi Calm Calm - N/A   Clear
11:15 PM 30.2 °F - 17.6 °F 60% 29.86 in 10.0 mi Calm Calm - N/A   Clear
11:35 PM 30.2 °F - 17.6 °F 60% 29.87 in 10.0 mi Calm Calm - N/A   Clear
11:55 PM 28.4 °F 24.6 °F 17.6 °F 64% 29.87 in 10.0 mi SSW 3.5 mph - N/A   Clear